EHI
0 0 0 0 0 0 0 0 0 0 0 0 0 0 0 0 0 0 0 0 0 0 0 0 0 0 0 0 0 0 0 0 0 0 0 0 0 0 0 0 0 0 0 0
0 0 0 0 0 0 0 0 0 0 0 0 0 0 0 0 0 0 0 0 0 0 0 0 0 0 0 0 0 0 0 0 0 0 0 0 0 0 0 0 0 0 0 0
0 0 0 0 0 0 0 0 0 0 0 0 0 0 0 0 0 0 0 0 0 0 0 0 0 0 0 0 0 0 0 1 0 0 0 0 0 0 0 0 0 0 0 0
0 0 0 0 0 0 0 0 0 0 0 0 0 0 0 0 0 0 0 0 0 0 0 0 0 0 0 0 0 0 0 1 0 0 0 0 0 0 0 0 0 0 0 0
0 0 0 0 0 0 0 0 0 0 0 0 0 0 0 0 0 0 0 0 0 0 0 0 0 0 0 0 0 0 1 1 1 1 0 0 0 0 0 0 0 0 0 0
0 0 0 0 0 0 0 0 0 0 0 0 0 0 0 0 0 0 0 0 0 0 0 0 0 0 0 0 0 0 1 2 2 2 1 0 0 0 0 0 0 0 0 0
0 0 0 0 0 0 0 0 0 0 0 0 0 0 0 0 0 0 0 0 0 0 0 0 0 0 0 0 0 0 0 1 2 2 1 0 0 0 0 0 0 0 0 0
0 0 0 0 0 0 0 0 0 0 0 0 0 0 0 0 0 0 0 0 0 0 0 0 0 0 0 0 0 0 0 0 1 1 0 0 0 0 0 0 0 0 0 0
0 0 0 0 0 0 0 0 0 0 0 0 0 0 0 0 0 0 0 0 0 0 0 0 0 0 0 0 0 0 0 0 0 0 0 0 0 0 0 0 0 0 0 0
0 0 0 0 0 0 0 0 0 0 0 0 0 0 0 0 0 0 0 0 0 0 0 0 0 0 0 0 0 0 0 0 0 0 0 0 0 0 0 0 0 0 0 0
0 0 0 0 0 0 0 0 0 0 0 0 0 0 0 0 0 0 0 0 0 0 0 0 0 0 0 0 0 0 0 0 0 0 0 0 0 0 0 0 0 0 0 0
0 0 0 0 0 0 0 0 0 0 0 0 0 0 0 0 0 0 0 0 0 0 0 0 0 0 0 0 0 0 0 0 0 0 0 0 0 0 0 0 0 0 0 0
0 0 0 0 0 0 0 0 0 0 0 0 0 0 0 0 0 0 0 0 0 0 0 0 0 0 0 0 0 0 0 0 0 0 0 0 0 0 0 0 0 0 0 0
0 0 0 0 0 0 0 0 0 0 0 0 0 0 0 0 0 0 0 0 0 0 0 0 0 0 0 0 0 0 0 0 0 0 0 0 0 0 0 0 0 0 0 0
0 0 0 0 0 0 0 0 0 0 0 0 0 0 0 0 0 0 0 0 0 0 0 0 0 0 0 0 0 0 0 0 0 0 0 0 0 0 0 0 0 0 0 0
0 0 0 0 0 0 0 0 0 0 0 0 0 0 0 0 0 0 0 0 0 0 0 0 0 0 0 0 0 0 0 0 0 0 0 0 0 0 0 0 0 0 0 0
0 0 0 0 0 0 0 0 0 0 0 0 0 0 0 0 0 0 0 0 0 0 0 0 0 0 0 0 0 0 0 0 0 0 0 0 0 0 0 0 0 0 0 0
0 0 0 0 0 0 0 0 0 0 0 0 0 0 0 0 0 0 0 0 0 0 0 0 0 0 0 0 0 0 0 0 0 0 0 0 0 0 0 0 0 0 0 0
0 0 0 0 0 0 0 0 0 0 0 0 0 0 0 0 0 0 0 0 0 0 0 0 0 0 0 0 0 0 0 0 0 0 0 0 0 0 0 0 0 0 0 0
0 0 0 0 0 0 0 0 0 0 0 0 0 0 0 0 0 0 0 0 0 0 0 0 0 0 0 0 0 0 0 0 0 0 0 0 0 0 0 0 0 0 0 0
0 0 0 0 0 0 0 0 0 0 0 0 0 0 0 0 0 0 0 0 0 0 0 0 0 0 0 0 0 0 0 0 0 0 0 0 0 0 0 0 0 0 0 0
0 0 0 0 0 0 0 0 0 0 0 0 0 0 0 0 0 0 0 0 0 0 0 0 0 0 0 0 0 0 0 0 0 0 0 0 0 0 0 0 0 0 0 0
0 0 0 0 0 0 0 0 0 0 0 0 0 0 0 0 0 0 0 0 0 0 0 0 0 0 0 0 0 0 0 0 0 0 0 0 0 0 0 0 0 0 0 0
0 0 0 0 0 0 0 0 0 0 0 0 0 0 0 0 0 0 0 0 0 0 0 0 0 0 0 0 0 0 0 0 0 0 0 0 0 0 0 0 0 0 0 0
0 0 0 0 0 0 0 0 0 0 0 0 0 0 0 0 0 0 0 0 0 0 0 0 0 0 0 0 0 0 0 0 0 0 0 0 0 0 0 0 0 0 0 0
0 0 0 0 0 0 0 0 0 0 0 0 0 0 0 0 0 0 0 0 0 0 0 0 0 0 0 0 0 0 0 0 0 0 0 0 0 0 0 0 0 0 0 0
0 0 0 0 0 0 0 0 0 0 0 0 0 0 0 0 0 0 0 0 0 0 0 0 0 0 0 0 0 0 0 0 0 0 0 0 0 0 0 0 0 0 0 0
Wind_Speed
10 11 8 11 12 10 8 8 8 10 11 13 12 11 11 11 11 11 11 11 10 9 9 8 7 6 4 5 6 8 11 13 14 14 12 11 11 12 12 13 13 13 12 12
8 8 10 13 14 12 11 10 11 12 13 9 9 8 9 9 11 11 11 12 11 11 10 9 8 7 5 4 5 7 11 12 12 11 12 12 12 12 12 12 12 12 13 12
7 6 6 10 9 8 7 6 6 8 9 10 10 11 9 9 10 11 12 12 11 11 10 10 9 7 6 5 5 7 9 11 11 12 13 12 12 12 12 12 11 12 12 12
5 3 7 8 4 4 6 7 6 8 9 9 10 10 7 6 8 11 12 12 12 11 11 10 9 7 5 4 5 7 8 9 11 12 12 12 12 12 12 10 11 10 11 11
3 4 9 8 4 3 4 6 5 7 9 9 8 7 5 6 7 9 10 11 11 10 10 10 9 7 4 3 4 6 8 9 10 11 12 13 13 12 10 10 10 9 10 11
4 4 7 6 4 2 1 5 5 4 7 8 7 6 7 9 10 11 11 10 10 10 9 9 8 6 4 3 4 6 8 8 9 11 12 13 13 11 9 9 10 9 9 9
6 7 9 7 3 1 2 7 6 5 6 6 4 6 9 11 12 11 11 11 11 10 9 9 7 5 3 3 4 5 5 7 8 10 11 11 11 10 10 10 10 9 9 8
5 7 10 3 1 4 7 5 5 6 6 6 8 10 10 11 11 11 11 11 10 9 9 8 6 3 2 3 2 4 6 7 8 9 9 9 11 10 10 12 12 10 10 8
9 10 6 3 6 6 5 6 6 6 7 8 9 10 11 10 10 10 11 10 9 8 9 8 6 3 2 2 1 5 6 7 8 9 9 10 11 12 10 10 10 9 9 9
7 10 9 8 7 7 6 7 8 8 8 8 9 10 11 11 10 10 10 10 9 7 8 8 6 4 3 2 2 5 7 7 8 10 10 9 8 9 9 10 10 10 10 9
9 9 8 8 7 8 8 8 8 8 8 8 8 10 10 10 10 9 9 9 8 7 7 8 7 5 4 2 3 6 7 7 8 8 10 9 7 6 7 7 10 12 11 11
10 8 7 8 7 8 8 9 9 9 10 9 8 10 10 10 9 9 9 9 8 7 7 7 6 5 4 2 3 7 7 7 7 7 8 8 9 7 8 8 11 12 13 13
11 9 9 10 9 8 9 10 9 9 10 11 10 9 9 9 8 8 9 9 8 7 7 7 6 5 4 2 3 6 7 7 6 7 8 9 9 10 9 9 12 12 15 16
9 7 8 8 9 9 9 9 9 9 9 9 9 8 7 8 8 8 9 8 8 7 7 6 6 5 4 1 3 6 6 7 7 7 8 8 9 9 9 10 9 7 10 16
7 7 9 8 8 8 7 7 8 8 8 8 6 7 7 8 9 9 8 7 7 6 6 6 5 5 3 1 4 6 6 6 7 7 7 8 8 9 9 10 10 10 9 11
7 6 7 7 8 8 7 7 7 8 8 8 8 8 8 8 9 8 7 6 6 6 6 6 5 5 2 2 5 5 5 8 9 8 8 8 9 9 9 10 10 10 10 10
4 5 5 6 7 7 7 7 7 8 8 9 9 9 8 8 7 7 7 6 6 6 5 5 5 4 1 3 5 5 6 8 11 9 8 8 9 9 10 10 10 9 9 10
5 6 5 6 7 8 8 8 7 8 8 9 9 8 8 7 7 8 7 6 6 5 5 4 4 2 1 3 5 5 6 6 7 8 8 8 9 9 10 10 11 12 10 11
3 5 5 6 6 6 7 8 8 8 8 8 8 8 8 7 7 7 6 6 5 6 5 3 4 1 2 4 5 5 6 7 7 8 8 11 10 9 9 10 11 11 11 10
4 4 5 5 6 6 7 8 8 8 7 7 7 8 7 7 6 6 6 5 5 4 4 3 2 1 3 4 6 6 7 8 9 9 8 9 9 10 10 10 10 10 10 10
5 5 6 6 7 7 7 7 8 9 8 7 7 8 8 7 6 5 4 5 5 3 3 3 2 2 3 4 6 6 7 8 8 9 9 9 10 10 10 10 10 10 10 10
5 6 7 7 8 8 7 7 7 8 9 8 7 7 7 7 6 5 5 5 5 5 3 1 1 3 5 6 5 7 7 8 8 8 8 9 10 10 11 11 10 10 10 10
6 6 7 8 8 9 9 7 7 7 8 8 8 7 7 6 4 4 5 3 3 4 3 2 3 6 6 5 6 7 8 8 8 8 9 9 9 10 11 11 10 10 10 10
7 7 8 8 8 8 9 9 7 6 7 7 6 6 5 5 4 4 4 5 5 4 2 3 6 7 7 5 6 6 7 8 8 8 9 9 9 9 10 10 10 10 10 12
7 8 8 8 8 7 8 8 7 6 6 5 6 6 4 4 4 4 3 3 4 3 1 3 6 6 5 5 6 7 7 7 8 9 9 10 10 10 10 10 10 10 10 10
7 7 7 7 7 7 6 5 5 5 5 5 5 4 3 3 3 3 2 2 2 1 1 2 3 5 5 6 7 7 7 9 9 9 9 10 11 11 10 11 12 10 10 10
7 6 6 6 6 5 5 5 5 5 5 5 5 4 3 2 2 1 1 0 0 1 2 3 3 4 5 6 7 7 7 7 8 8 9 9 9 10 11 12 10 10 10 10
Wind_Direction
253 264 263 263 271 266 244 238 248 272 283 296 312 315 317 324 330 337 339 340 339 336 329 323 316 298 264 236 217 199 191 191 194 194 189 182 180 182 182 182 183 181 179 180
272 264 266 267 265 261 255 248 251 271 278 288 305 314 317 323 328 332 334 332 331 332 328 321 314 301 279 251 226 200 194 193 190 185 180 178 178 176 177 179 178 177 179 178
276 294 296 266 252 243 243 236 237 257 273 307 316 318 315 319 326 325 325 325 325 323 318 312 306 297 273 248 227 200 194 188 183 179 178 177 173 172 176 176 173 176 177 176
277 316 257 250 240 239 252 256 247 261 280 294 294 297 292 306 318 319 321 319 318 317 316 312 307 300 282 250 220 199 190 184 180 176 175 171 171 174 175 171 170 170 171 172
244 262 275 282 261 220 234 271 254 262 285 297 304 305 299 314 315 307 307 307 308 307 306 307 307 302 287 243 213 194 186 182 177 173 171 168 171 172 167 165 165 163 162 164
226 244 256 258 261 258 151 281 274 271 289 304 328 329 308 319 318 315 313 313 313 312 311 312 310 306 286 239 206 196 187 180 173 169 169 169 169 165 158 158 158 154 152 156
228 243 263 258 264 83 180 258 286 285 286 296 287 266 285 305 309 310 310 312 318 317 315 313 312 307 285 249 215 199 175 165 164 164 165 163 156 153 151 150 147 146 144 143
206 226 252 247 157 198 230 261 284 287 286 289 288 291 300 305 307 314 317 318 322 321 319 317 316 313 297 268 223 168 155 154 157 157 154 151 146 146 149 148 145 145 141 136
205 225 248 236 231 245 249 267 275 280 287 291 294 297 303 305 307 311 312 314 315 316 320 321 320 315 297 286 196 153 149 151 151 149 148 149 149 149 149 151 149 150 147 143
247 257 258 263 267 267 260 263 273 277 284 288 289 293 298 301 303 308 309 310 312 319 324 323 322 318 300 279 194 155 151 149 147 146 144 146 147 152 154 156 153 151 150 147
249 265 282 271 255 262 274 280 284 285 282 278 281 287 289 294 297 299 302 304 308 310 313 315 319 314 302 268 174 154 148 145 143 144 144 142 140 144 152 161 163 158 158 154
243 242 243 264 271 275 280 283 283 286 289 285 276 277 286 289 291 294 298 304 306 308 309 312 314 306 293 254 170 151 146 146 145 142 140 138 130 109 90 121 132 140 147 147
246 259 256 267 276 276 275 281 284 282 281 286 283 278 281 284 288 293 297 300 299 301 304 308 307 298 288 243 171 155 152 150 144 143 143 142 139 135 124 99 101 118 134 138
250 260 269 270 276 283 282 284 287 286 283 280 280 283 284 285 289 293 295 296 297 299 302 305 303 296 292 223 153 145 144 146 147 145 144 142 140 139 138 137 130 116 121 132
250 243 252 272 282 286 290 295 299 300 302 300 295 295 295 294 293 293 295 300 302 302 303 308 306 299 304 172 150 149 147 146 141 137 135 134 134 132 132 131 131 130 125 127
271 266 263 273 281 288 296 298 295 299 304 303 303 301 297 292 290 292 297 302 303 303 303 306 300 296 294 156 147 145 141 141 139 137 135 136 137 136 136 136 135 136 138 138
268 279 283 289 289 291 291 287 287 293 299 300 299 299 300 301 302 304 306 304 296 292 292 289 289 294 259 157 147 144 140 138 137 136 138 141 142 141 140 137 136 135 135 143
239 253 263 274 283 291 296 296 294 296 295 296 300 302 303 302 299 300 305 310 310 306 298 287 287 288 179 148 143 141 141 141 141 140 138 138 138 136 135 136 136 134 133 136
283 283 287 287 286 289 293 297 298 296 296 299 301 299 296 291 290 294 302 306 304 303 303 303 296 263 156 149 143 136 137 137 134 133 132 135 133 133 134 136 137 138 139 137
317 312 307 305 302 296 296 298 300 298 298 299 298 298 298 296 296 298 301 294 280 269 276 287 280 185 153 145 140 136 138 139 137 135 134 137 136 135 135 136 137 138 138 136
319 316 313 310 306 302 297 298 298 298 299 299 294 292 293 294 294 292 293 293 294 282 274 268 247 179 151 142 134 133 135 137 139 140 141 140 137 137 137 137 137 136 135 132
310 308 306 304 303 302 300 296 293 293 294 293 292 291 293 296 299 294 275 266 281 291 289 257 212 170 153 140 132 134 136 137 138 140 142 142 141 140 139 138 137 136 134 133
299 298 299 299 298 297 297 294 291 289 287 287 288 288 287 288 288 286 291 287 286 285 280 235 181 156 145 133 133 136 138 140 141 142 141 140 139 139 139 138 137 136 135 134
296 295 293 293 294 294 295 295 293 288 283 282 280 279 278 284 285 271 265 285 294 288 261 193 165 151 139 132 134 136 137 136 136 135 134 132 133 134 135 136 134 134 134 134
292 290 290 292 292 287 288 293 295 292 288 285 283 281 272 260 261 274 275 276 280 279 211 165 156 146 137 130 133 133 133 136 136 136 135 135 136 135 135 135 135 135 135 136
289 289 286 280 278 282 286 286 285 286 287 288 288 287 282 272 263 265 267 265 253 219 157 131 130 128 123 126 127 127 128 132 133 133 135 134 134 134 133 133 133 134 134 134
287 286 287 288 285 282 281 277 275 277 278 276 283 291 290 283 270 258 242 223 117 108 106 106 113 118 121 123 123 123 124 126 128 129 130 130 131 132 133 134 134 133 133 134